Overview Statistics Trail Chart Weather Telemetry Raw packets
 

This is the latest recevied weather packets stored in our database for station/object KI5QCM-13. If no packets are shown the sender has not sent any weather packets the latest 10 day(s).

<< 1 2 3 4 >>
Time Temp. Humidity Pressure Rain* Wind** Luminosity Snow
1788444051 27.78° C 76% 1014.7 hPa 0 mm - 62 W/m² -
1788443476 27.78° C 77% 1014.8 hPa 0 mm - 51 W/m² -
1788442820 27.22° C 78% 1014.8 hPa 0 mm - 55 W/m² -
1788442244 26.67° C 79% 1014.8 hPa 0 mm - 71 W/m² -
1788441668 26.11° C 80% 1014.7 hPa 0 mm - 43 W/m² -
1788441027 25.56° C 82% 1014.7 hPa 0 mm - 46 W/m² -
1788440435 25° C 84% 1014.6 hPa 0 mm - 29 W/m² -
1788439859 24.44° C 86% 1014.4 hPa 0 mm - 25 W/m² -
1788439220 23.89° C 87% 1014.2 hPa 0 mm - 21 W/m² -
1788438644 23.89° C 88% 1014.3 hPa 0 mm - 18 W/m² -
1788438068 23.33° C 89% 1014.1 hPa 0 mm - 12 W/m² -
1788437476 23.33° C 89% 1014.1 hPa 0 mm - 7 W/m² -
1788436836 22.78° C 89% 1013.8 hPa 0 mm - 2 W/m² -
1788436260 23.33° C 89% 1013.9 hPa 0 mm - 0 W/m² -
1788435620 23.33° C 88% 1013.9 hPa 0 mm - 0 W/m² -
1788435027 23.33° C 88% 1013.6 hPa 0 mm - 0 W/m² -
1788434452 23.33° C 88% 1013.7 hPa 0 mm - 0 W/m² -
1788433876 23.33° C 87% 1013.7 hPa 0 mm - 0 W/m² -
1788433254 23.89° C 86% 1013.6 hPa 0 mm - 0 W/m² -
1788432659 23.89° C 85% 1013.7 hPa 0 mm - 0 W/m² -
1788432068 23.89° C 85% 1013.8 hPa 0 mm - 0 W/m² -
1788431428 23.89° C 85% 1013.6 hPa 0 mm - 0 W/m² -
1788430842 23.89° C 84% 1013.7 hPa 0 mm - 0 W/m² -
1788430263 23.89° C 84% 1013.7 hPa 0 mm - 0 W/m² -
1788429620 23.89° C 84% 1013.6 hPa 0 mm - 0 W/m² -

* Rain latest hour (hover to see other rain measurements)
** Current wind speed in m/s (hover to see current wind gust speed)